Wind_Speed
41 41 40 40 40 39 39 39 38 37 37 36 36 36 35 34 34 34 33 33 33 33 34 33 33 33 33 33 33 34 34 34 34 35 36 36 37 37 38 38 39 39 39
41 41 41 40 40 39 39 39 38 38 37 37 36 35 35 34 34 33 32 33 33 33 33 33 33 33 33 33 33 34 34 35 35 36 36 37 37 38 38 39 39 40 40
40 40 41 41 40 39 39 39 38 38 38 37 36 35 35 34 34 33 33 32 33 33 33 33 32 33 33 33 34 35 35 35 36 37 37 38 38 38 38 38 39 40 41
40 40 40 40 40 40 39 39 39 39 38 38 37 35 35 34 34 33 32 32 32 32 32 32 32 33 33 34 35 36 36 37 37 38 38 39 40 39 39 39 40 40 41
39 39 39 39 40 40 40 39 39 38 38 37 36 35 35 34 34 33 32 32 31 31 32 32 32 33 34 34 35 35 36 36 36 37 37 38 39 39 40 40 40 41 42
39 39 39 39 39 39 39 39 39 38 38 37 36 35 35 34 34 33 33 33 32 32 32 32 32 32 32 33 33 34 34 35 35 36 37 37 38 39 40 41 41 42 43
39 38 39 39 39 39 39 39 39 38 38 38 37 36 35 35 34 33 33 33 33 32 32 31 31 32 32 32 33 34 35 35 36 37 38 38 39 40 41 42 43 43 44
38 38 38 38 39 38 38 38 39 38 37 38 37 36 35 35 34 34 33 33 32 32 32 32 33 33 33 34 34 35 36 37 37 38 38 39 40 41 42 43 44 44 44
38 38 39 38 38 38 38 38 38 38 37 37 38 37 36 35 35 34 33 33 33 33 33 33 33 34 34 34 35 36 37 37 38 39 40 41 41 42 43 44 45 46 46
37 38 38 38 38 38 37 37 38 38 38 37 38 38 37 36 35 34 34 34 34 34 34 34 34 35 35 35 36 37 37 38 39 40 41 41 42 43 44 45 46 47 48
36 37 38 38 38 38 38 38 38 38 38 38 37 37 37 36 36 35 35 35 35 35 35 35 36 36 36 36 37 38 38 39 40 41 41 42 43 43 44 46 47 48 49
35 36 37 37 38 38 38 38 37 37 38 38 38 37 37 37 36 35 36 35 35 36 36 36 36 37 37 37 38 39 40 40 41 42 42 42 43 44 45 46 47 48 49
35 35 36 37 37 37 37 37 37 37 38 38 38 38 37 37 36 36 36 36 36 36 36 36 36 37 38 38 39 40 41 41 42 42 42 43 44 45 46 47 48 48 48
34 34 35 36 36 36 37 37 37 38 38 38 38 38 38 37 37 37 37 37 37 36 37 37 37 38 39 39 40 41 41 41 42 42 42 43 44 45 46 47 48 48 48
35 35 35 35 37 37 37 37 37 38 38 38 39 39 39 38 38 38 38 38 37 37 37 37 38 39 39 40 40 41 41 42 41 41 42 43 44 45 46 46 47 47 47
33 35 35 35 36 36 36 36 37 37 38 38 39 39 39 39 39 38 39 38 38 38 38 38 39 39 39 40 41 41 41 41 41 42 43 43 44 45 45 45 46 47 47
33 33 34 35 35 36 36 36 36 37 37 38 38 39 39 39 39 38 38 39 39 39 38 38 39 39 40 40 41 41 41 41 42 42 43 43 44 44 45 45 45 46 46
33 33 33 34 35 35 36 36 36 36 37 38 38 38 38 38 39 38 38 38 38 38 39 39 39 40 40 41 41 41 41 42 42 42 43 43 43 43 44 44 44 45 45
32 32 33 33 34 35 35 35 35 35 36 37 37 38 38 38 38 38 38 38 38 38 39 39 39 40 41 41 41 41 41 41 41 42 42 42 42 42 42 43 43 43 42
31 31 32 33 34 35 35 35 35 35 35 36 37 37 37 38 38 38 38 38 38 38 38 39 39 39 40 41 41 41 41 41 41 41 41 41 41 41 41 41 41 41 40
31 31 32 33 34 35 35 35 34 34 34 35 35 36 37 37 38 38 38 38 38 38 38 38 39 39 39 40 40 40 40 40 39 40 40 40 40 40 39 39 38 37 36
31 31 32 32 33 34 35 35 34 34 34 33 34 35 36 36 36 37 37 37 37 38 38 38 38 38 39 39 39 39 38 38 37 37 37 37 38 37 36 35 35 34 35
30 31 31 32 32 33 33 34 34 33 33 33 33 33 35 35 36 36 36 36 36 36 37 37 37 38 38 38 38 37 36 36 35 35 34 34 35 34 34 34 33 34 34
29 29 30 30 31 32 32 33 33 33 32 32 32 33 33 34 35 35 35 35 35 35 36 36 37 37 37 36 36 35 34 34 33 32 32 32 32 32 32 32 32 32 32
28 29 29 30 31 31 31 31 31 32 32 32 32 32 32 33 33 34 34 34 35 35 35 35 35 35 35 34 33 32 32 31 31 31 31 30 30 30 31 31 30 30 30
27 28 29 29 29 30 30 30 31 31 31 32 32 32 32 32 32 33 33 33 33 33 34 34 33 33 32 31 31 30 30 29 29 29 29 28 28 29 29 29 28 28 28
Wind_Direction
232 232 233 234 235 237 237 239 240 242 242 244 246 248 250 252 254 257 259 261 262 264 265 267 269 270 271 273 274 276 276 278 279 280 281 283 284 285 285 285 286 287 288
232 233 234 234 235 237 237 238 240 241 242 244 246 248 249 251 253 256 258 260 262 263 265 267 269 271 271 273 274 276 277 279 280 281 282 283 284 285 285 286 287 288 289
233 234 235 235 236 236 238 238 240 241 242 244 246 248 249 251 252 255 258 260 262 264 265 267 269 270 272 274 275 276 278 279 281 282 283 283 283 283 284 286 287 288 290
233 234 235 235 236 237 237 238 239 241 242 243 245 247 248 250 252 254 258 260 263 264 265 267 268 270 272 274 275 276 278 280 281 282 283 284 285 284 284 285 287 289 290
232 233 234 235 236 236 237 238 239 241 242 243 244 246 247 249 251 254 257 260 262 264 266 268 270 271 273 274 276 278 279 281 283 283 284 285 285 285 286 286 287 289 291
233 233 233 234 235 237 236 237 239 241 241 241 243 246 248 250 251 254 257 259 262 264 266 269 270 272 273 275 277 279 281 282 284 285 286 287 287 288 288 288 289 290 292
233 233 234 235 236 237 237 237 239 240 241 241 243 246 248 250 252 253 256 259 262 264 266 268 270 272 274 275 278 280 282 284 285 286 287 287 288 289 290 291 291 292 293
233 233 234 235 237 238 238 237 238 239 240 241 243 245 248 250 252 254 256 258 260 263 265 267 270 272 274 275 278 280 282 284 285 286 287 288 289 290 291 292 293 294 294
233 233 234 235 236 238 238 239 239 240 240 241 243 245 247 249 252 253 255 258 260 263 265 268 270 273 274 277 279 281 283 285 286 287 288 288 289 291 292 293 294 295 296
233 234 235 236 236 237 237 238 238 239 241 241 243 245 247 249 251 252 255 258 260 263 265 268 270 273 275 277 280 282 284 286 287 288 289 290 290 292 293 294 295 296 297
235 236 236 235 235 236 237 237 237 238 240 241 243 245 247 249 250 253 255 257 260 263 265 268 271 273 275 278 280 283 285 287 288 288 289 290 292 293 294 296 297 298 298
235 235 235 235 235 235 236 237 237 237 238 239 242 245 247 249 251 253 255 258 261 263 265 268 271 273 276 279 281 283 285 287 288 288 290 291 292 294 296 297 298 299 299
235 234 234 235 235 235 236 237 237 238 238 239 242 245 248 250 251 254 256 259 261 264 266 268 271 274 277 279 281 284 286 287 288 289 290 291 293 295 296 297 299 299 299
234 234 234 234 234 235 236 237 237 238 239 241 243 245 248 250 252 254 257 260 262 264 266 269 272 275 278 280 283 285 286 288 289 290 291 292 294 295 296 298 299 300 300
233 233 233 234 234 235 236 238 239 239 240 242 244 246 248 250 252 255 258 260 262 264 267 270 273 276 279 281 283 285 287 288 289 290 292 294 295 296 297 299 300 300 300
233 233 233 234 234 235 237 238 240 241 241 243 244 246 248 250 252 255 258 261 263 265 267 270 273 276 279 282 284 286 287 288 289 291 293 295 296 297 298 299 300 301 302
232 232 233 234 234 235 237 239 241 242 243 244 245 247 249 251 253 255 259 261 264 266 268 271 273 276 278 282 284 286 287 289 290 292 294 296 297 298 299 300 300 302 303
231 232 233 235 236 237 238 239 241 243 244 245 246 248 250 252 254 256 259 262 265 267 270 272 274 277 279 282 284 286 287 289 291 293 294 296 298 298 299 300 301 303 303
231 233 235 235 236 237 238 240 241 244 246 247 248 249 250 253 255 256 259 262 265 268 271 273 276 278 279 282 284 286 288 289 291 293 295 297 298 298 299 300 302 303 304
234 234 236 237 238 238 239 240 242 244 246 248 249 250 251 252 254 256 258 262 265 268 271 273 276 278 280 281 284 287 288 289 291 293 295 297 297 298 299 300 302 304 305
237 236 237 239 239 239 240 242 243 245 246 248 249 250 252 253 254 256 258 262 265 268 270 273 276 278 279 282 284 287 289 290 291 294 295 296 297 298 300 301 304 305 307
238 238 238 239 240 240 241 243 245 246 248 249 250 251 252 254 255 257 259 262 265 268 271 274 276 278 280 282 285 287 289 291 293 294 295 296 298 299 301 303 305 306 308
238 239 240 240 240 240 242 244 245 247 249 250 251 253 254 255 256 258 260 263 265 268 271 274 276 278 281 283 284 286 288 290 293 294 296 297 299 300 301 304 306 306 307
237 239 240 241 240 241 243 245 246 246 248 250 252 253 255 257 258 260 262 264 266 269 271 274 276 278 280 282 283 285 287 288 291 293 295 297 299 300 303 305 307 307 308
239 239 241 242 241 242 245 246 247 247 249 251 253 256 257 259 260 261 264 266 267 268 270 272 274 277 278 279 282 284 286 287 289 291 294 296 299 301 305 306 307 309 310
241 241 242 244 244 245 246 247 248 249 250 253 255 257 259 260 261 262 264 266 267 268 269 270 272 274 275 277 280 283 284 286 288 291 294 296 298 302 305 306 306 308 310
Height
5722 5726 5731 5735 5739 5743 5747 5751 5754 5757 5760 5762 5765 5767 5770 5771 5773 5774 5775 5776 5777 5777 5777 5778 5777 5777 5777 5777 5776 5775 5774 5773 5772 5771 5770 5768 5766 5763 5761 5759 5756 5754 5751
5714 5719 5723 5727 5732 5736 5739 5743 5746 5749 5752 5755 5757 5760 5762 5764 5766 5767 5768 5769 5769 5770 5770 5770 5770 5770 5770 5769 5769 5768 5767 5765 5764 5763 5762 5761 5759 5756 5753 5750 5747 5745 5742
5707 5711 5715 5720 5724 5728 5732 5735 5738 5741 5744 5747 5750 5752 5754 5756 5758 5760 5761 5762 5762 5763 5763 5763 5763 5763 5762 5762 5761 5760 5759 5758 5756 5754 5753 5751 5750 5748 5746 5742 5739 5736 5732
5699 5703 5707 5711 5716 5720 5723 5727 5730 5733 5736 5739 5742 5745 5747 5749 5751 5752 5753 5754 5755 5755 5755 5755 5755 5755 5755 5754 5753 5752 5750 5749 5748 5746 5744 5742 5739 5738 5736 5734 5730 5727 5723
5690 5695 5699 5703 5707 5711 5715 5719 5722 5726 5729 5732 5735 5737 5739 5741 5743 5744 5746 5747 5747 5747 5748 5748 5748 5747 5746 5746 5744 5743 5742 5740 5739 5737 5735 5732 5730 5727 5726 5724 5721 5718 5714
5682 5686 5690 5694 5699 5703 5707 5710 5714 5718 5721 5724 5727 5730 5732 5734 5735 5737 5738 5739 5740 5740 5740 5740 5740 5739 5738 5738 5736 5735 5733 5732 5730 5728 5726 5723 5721 5718 5716 5713 5711 5708 5704
5673 5678 5682 5686 5690 5694 5698 5702 5706 5709 5713 5716 5719 5722 5724 5726 5728 5729 5730 5731 5732 5732 5732 5732 5732 5731 5731 5730 5728 5727 5726 5724 5722 5719 5717 5714 5712 5709 5706 5703 5700 5697 5694
5665 5670 5674 5678 5682 5686 5690 5693 5697 5701 5705 5708 5711 5713 5716 5718 5720 5721 5722 5723 5724 5724 5725 5725 5724 5724 5723 5722 5721 5719 5717 5715 5713 5711 5708 5705 5702 5699 5696 5693 5689 5686 5683
5657 5661 5665 5669 5673 5677 5681 5685 5689 5692 5696 5699 5702 5705 5707 5710 5712 5713 5714 5715 5716 5717 5717 5717 5716 5716 5715 5714 5712 5711 5709 5707 5704 5702 5699 5696 5693 5689 5686 5682 5678 5674 5671
5649 5653 5657 5661 5665 5669 5672 5676 5680 5684 5687 5690 5693 5696 5699 5701 5703 5705 5706 5707 5708 5708 5708 5708 5708 5707 5707 5705 5704 5702 5700 5698 5695 5692 5689 5686 5683 5679 5675 5671 5667 5662 5657
5640 5644 5648 5652 5656 5660 5664 5667 5671 5675 5678 5682 5685 5688 5690 5692 5695 5696 5698 5699 5699 5700 5700 5700 5700 5699 5698 5697 5695 5693 5691 5689 5686 5683 5680 5676 5673 5669 5665 5660 5655 5650 5645
5632 5636 5639 5643 5647 5651 5655 5659 5663 5666 5670 5673 5676 5679 5681 5684 5686 5688 5689 5690 5691 5691 5691 5691 5691 5690 5689 5688 5686 5684 5682 5679 5676 5673 5670 5666 5662 5658 5654 5649 5644 5638 5633
5624 5628 5631 5635 5639 5643 5647 5650 5654 5658 5661 5664 5667 5670 5672 5675 5677 5679 5680 5681 5682 5682 5682 5682 5682 5681 5680 5679 5677 5675 5672 5669 5666 5663 5660 5656 5652 5648 5643 5638 5633 5627 5621
5615 5619 5623 5627 5631 5634 5638 5642 5645 5649 5652 5655 5658 5661 5664 5666 5668 5669 5671 5672 5673 5673 5673 5673 5673 5672 5671 5669 5667 5665 5662 5659 5656 5653 5649 5645 5641 5637 5632 5627 5622 5616 5610
5606 5611 5615 5618 5622 5626 5629 5633 5636 5640 5643 5646 5649 5652 5654 5657 5659 5660 5661 5662 5663 5664 5664 5664 5663 5662 5661 5659 5657 5655 5652 5649 5646 5643 5639 5635 5630 5625 5621 5616 5611 5605 5600
5598 5602 5606 5610 5613 5617 5621 5624 5627 5631 5634 5637 5640 5643 5645 5647 5649 5651 5652 5653 5654 5654 5654 5654 5654 5653 5651 5650 5647 5645 5642 5639 5636 5633 5629 5625 5620 5615 5611 5606 5600 5595 5589
5590 5593 5597 5601 5605 5608 5612 5615 5618 5622 5625 5628 5631 5633 5636 5638 5640 5641 5643 5644 5644 5645 5645 5644 5644 5643 5641 5640 5637 5635 5632 5629 5626 5623 5619 5615 5610 5605 5601 5596 5590 5585 5578
5582 5585 5589 5592 5596 5600 5603 5606 5609 5612 5615 5618 5621 5624 5626 5628 5630 5632 5633 5634 5635 5635 5635 5634 5634 5633 5631 5630 5627 5625 5622 5619 5616 5613 5609 5605 5600 5595 5591 5586 5581 5575 5569
5574 5577 5581 5584 5587 5591 5594 5598 5601 5603 5606 5609 5612 5614 5617 5619 5620 5622 5623 5624 5625 5625 5625 5625 5624 5623 5621 5619 5617 5615 5612 5609 5606 5602 5598 5594 5590 5586 5581 5576 5571 5566 5560
5566 5569 5573 5576 5579 5582 5585 5589 5592 5595 5597 5600 5602 5605 5607 5609 5611 5612 5613 5614 5615 5615 5615 5615 5614 5613 5611 5609 5607 5605 5602 5600 5596 5593 5589 5584 5580 5576 5570 5566 5561 5556 5551
5558 5561 5564 5567 5570 5574 5577 5580 5583 5586 5588 5590 5593 5595 5597 5599 5600 5602 5603 5604 5605 5605 5605 5605 5604 5602 5601 5599 5597 5595 5592 5589 5586 5583 5579 5575 5571 5566 5561 5557 5552 5547 5542
5550 5553 5556 5559 5562 5565 5569 5571 5574 5577 5579 5581 5584 5586 5587 5589 5591 5592 5593 5594 5595 5595 5595 5595 5594 5592 5591 5589 5587 5585 5582 5579 5576 5573 5569 5565 5561 5557 5553 5549 5544 5540 5535
5543 5545 5548 5551 5554 5557 5560 5563 5565 5568 5570 5572 5574 5576 5578 5579 5581 5582 5584 5584 5585 5585 5585 5585 5584 5582 5581 5579 5577 5575 5573 5570 5567 5564 5560 5557 5553 5549 5545 5541 5537 5532 5528
5535 5538 5541 5544 5546 5549 5551 5554 5556 5559 5561 5563 5565 5567 5568 5570 5571 5572 5574 5574 5575 5575 5575 5574 5574 5573 5571 5570 5568 5566 5563 5561 5558 5555 5552 5549 5545 5542 5538 5534 5530 5525 5521
5528 5531 5533 5536 5539 5541 5543 5546 5548 5550 5552 5554 5556 5558 5559 5560 5562 5563 5564 5564 5565 5565 5565 5564 5563 5563 5562 5560 5558 5556 5555 5552 5550 5547 5545 5542 5539 5535 5532 5527 5523 5519 5515
5521 5523 5526 5529 5531 5533 5535 5537 5540 5542 5544 5546 5547 5549 5550 5552 5552 5553 5554 5554 5554 5554 5554 5553 5553 5552 5552 5551 5549 5548 5546 5544 5542 5540 5537 5535 5532 5529 5525 5521 5517 5513 5509